Weather History for Jackson, MS

Change the Weather History Date:

Monday, July 16, 2012

  Actual Average Record
Temperature  
Mean Temperature 84 °F 82 °F  
Max Temperature 94 °F 92 °F 106 °F (1980)
Min Temperature 73 °F 72 °F 54 °F (1967)
Degree Days  
Heating Degree Days 0 0  
Month to date heating degree days 0 0  
Since 1 June heating degree days 0 0  
Since 1 July heating degree days 0 0  
Cooling Degree Days 19 17  
Month to date cooling degree days 282 265  
Year to date cooling degree days 1307 1045  
Since 1 June cooling degree days 730 687  
Growing Degree Days 33 (Base 50)    
Moisture  
Dew Point 73 °F    
Average Humidity 69    
Maximum Humidity 94    
Minimum Humidity 44    
Precipitation  
Precipitation T in 0.15 in 1.68 in (1938)
Month to date precipitation 3.85 2.48  
Year to date precipitation 39.81 30.71  
Sea Level Pressure  
Sea Level Pressure 30.03 in    
Wind  
Wind Speed 2 mph (SSE)    
Max Wind Speed 9 mph    
Max Gust Speed 15 mph    
Visibility 9 miles    
Events      
T = Trace of Precipitation, MM = Missing Value Source: NWS Daily Summary

Daily Weather History Graph

Daily Weather History Graph

Search for Another Location

Airport:

Trip Planner

Search our weather history database for the weather conditions in past years. The results will help you decide how hot, cold, wet, or windy it might be!

Date:

Astronomy

Jul. 16, 2012 Rise Set
Actual Time 6:05 AM CDT 8:07 PM CDT
Civil Twilight 5:37 AM CDT 8:35 PM CDT
Nautical Twilight 5:03 AM CDT 9:08 PM CDT
Astronomical Twilight 4:27 AM CDT 9:44 PM CDT
Moon 3:49 AM CDT 6:12 PM CDT
Length of Visible Light 14h 57m
Length of Day
14h 02m
Waning Crescent, 6% of the Moon is Illuminated
Jul 16
Waning Crescent
Jul 18
New
Jul 26
First Quarter
Aug 1
Full
Aug 9
Last Quarter

Hourly Weather History & Observations

Time (CDT) Temp. Heat Index Dew Point Humidity Pressure Visibility Wind Dir Wind Speed Gust Speed Precip Events Conditions
12:54 AM 75.9 °F - 73.9 °F 94% 30.05 in 9.0 mi SE 5.8 mph - N/A   Clear
1:54 AM 75.9 °F - 73.9 °F 94% 30.05 in 9.0 mi South 4.6 mph - N/A   Clear
2:54 AM 75.0 °F - 73.0 °F 94% 30.05 in 7.0 mi Calm Calm - N/A   Clear
3:54 AM 73.9 °F - 72.0 °F 93% 30.04 in 6.0 mi Calm Calm - N/A   Clear
4:54 AM 73.9 °F - 72.0 °F 93% 30.05 in 6.0 mi Calm Calm - N/A   Clear
5:54 AM 73.0 °F - 71.1 °F 93% 30.06 in 7.0 mi Calm Calm - N/A   Clear
6:54 AM 75.0 °F - 73.0 °F 94% 30.08 in 5.0 mi Calm Calm - N/A   Clear
7:54 AM 78.1 °F - 75.0 °F 90% 30.09 in 9.0 mi SSE 3.5 mph - N/A   Clear
8:54 AM 81.0 °F 86.7 °F 75.0 °F 82% 30.10 in 10.0 mi SSE 4.6 mph - N/A   Partly Cloudy
9:25 AM 82.4 °F 89.5 °F 75.2 °F 79% 30.10 in 10.0 mi SW 4.6 mph - N/A   Mostly Cloudy
9:54 AM 84.0 °F 91.2 °F 73.9 °F 72% 30.09 in 10.0 mi Calm Calm - N/A   Mostly Cloudy
10:54 AM 87.1 °F 94.5 °F 73.0 °F 63% 30.08 in 10.0 mi SSE 3.5 mph - N/A   Mostly Cloudy
11:01 AM 87.8 °F 93.8 °F 71.6 °F 58% 30.10 in 10.0 mi West 4.6 mph - N/A   Scattered Clouds
11:54 AM 89.1 °F 97.0 °F 73.0 °F 59% 30.08 in 10.0 mi SSE 6.9 mph - N/A   Mostly Cloudy
12:54 PM 87.1 °F 92.8 °F 71.1 °F 59% 30.05 in 10.0 mi Calm Calm - N/A   Mostly Cloudy
1:54 PM 91.9 °F 97.4 °F 70.0 °F 48% 30.03 in 10.0 mi Variable 5.8 mph - N/A   Mostly Cloudy
2:54 PM 91.9 °F 97.4 °F 70.0 °F 48% 30.01 in 10.0 mi SSE 4.6 mph - N/A   Mostly Cloudy
3:54 PM 93.0 °F 97.9 °F 69.1 °F 45% 29.99 in 10.0 mi Variable 4.6 mph - N/A   Mostly Cloudy
4:54 PM 93.0 °F 97.4 °F 68.0 °F 44% 29.97 in 10.0 mi Calm Calm - N/A   Mostly Cloudy
5:54 PM 93.0 °F 99.0 °F 70.0 °F 47% 29.96 in 10.0 mi Variable 3.5 mph - N/A   Scattered Clouds
6:54 PM 91.0 °F 99.3 °F 73.0 °F 55% 29.96 in 10.0 mi Calm Calm - N/A   Scattered Clouds
7:54 PM 84.0 °F 92.6 °F 75.9 °F 76% 29.96 in 10.0 mi East 5.8 mph - N/A   Scattered Clouds
8:54 PM 82.0 °F 88.6 °F 75.0 °F 79% 29.97 in 10.0 mi Calm Calm - N/A   Scattered Clouds
9:54 PM 81.0 °F 87.3 °F 75.9 °F 85% 29.99 in 10.0 mi Calm Calm - 0.00 in   Partly Cloudy
10:54 PM 79.0 °F - 75.0 °F 88% 29.99 in 10.0 mi Calm Calm - N/A   Partly Cloudy
11:54 PM 78.1 °F - 75.0 °F 90% 29.98 in 10.0 mi Calm Calm - N/A   Scattered Clouds